Regional Weather Roundup
Issued by NWS Goodland, KS

Home | Current Version | Previous Version | Text Only | Print | Product List | Glossary Off
Versions: 1 2 3 4 5 6 7 8 9 10 11 12 13 14 15 16 17 18 19 20 21 22 23 24 25 26 27 28 29 30 31 32 33 34 35 36 37 38 39 40 41 42 43 44 45 46 47 48 49 50

000
ASUS43 KGLD 230459
RWRGLD

GOODLAND FORECAST AREA HOURLY WEATHER ROUNDUP
NATIONAL WEATHER SERVICE GOODLAND KS
1100 PM MDT THU JUN 22 2017

...OFFICIAL OBSERVATIONS...

CITY           SKY/WX    TMP DP  RH WIND       PRES   REMARKS
GOODLAND KS    CLOUDY    69  57  65 NE16      29.94R
HILL CITY KS   CLOUDY    76  61  59 NE18G25   29.86R
IMPERIAL NEB   PTCLDY    66  49  54 NE8       29.96R
MCCOOK NEB     PTCLDY    69  52  54 NE17      29.90R
AKRON CO       PTCLDY    65  53  65 E13       30.01S
BURLINGTON CO  PTCLDY    69  57  65 NE16G24   29.97R
LIMON CO       PTCLDY    66  55  67 SE10      30.05R
$$

...UNOFFICIAL OBSERVATIONS...

CITY           SKY/WX    TMP DP  RH WIND       PRES   REMARKS
LENORA KS        N/A     73  32  22 MISG        N/A
NORTON KS      CLEAR     73  54  49 N14G22    29.87R
SHARON SPRINGS   N/A     70  62  74 CALM        N/A
TRENTON NEB      N/A     68  32  26 N8          N/A
KIT CARSON CO    N/A     67  58  73 MISG        N/A
YUMA CO        FAIR      64  50  59 E9        29.99S
$$




USA.gov is the U.S. government's official web portal to all federal, state and local government web resources and services.